Latest Weather Observations for Gatton

IDQ60901

Issued at 10:15 pm EST Thursday 24 July 2014 (issued every 10 minutes, with the page automatically refreshed every 10 minutes)

About weather observations | Map of Brisbane area stations | Latest observations for Brisbane area | Other Formats
Station Details ID: 040082 Name: UNIVERSITY OF QUEENSLAND GATTON Lat: -27.54 Lon: 152.34 Height: 89.0 m
Data from the previous 72 hours. | See also: Recent months at Gatton
Date/Time
EST
Tmp

°C
App
Tmp
°C
Dew
Point
°C
Rel
Hum
%
Delta-T

°C
Wind Press
QNH
hPa
Press
MSL
hPa
Rain
since
9 am
mm
Dir
 
Spd
km/h
Gust
km/h
Spd
kts
Gust
kts
24/10:00pm 8.9 8.0 6.2 83 1.2 SW 0 0 0 0 - - 0.0
24/09:30pm 10.0 9.2 6.7 80 1.6 CALM 0 0 0 0 - - 0.0
24/09:00pm 9.2 8.1 5.0 75 1.9 CALM 0 0 0 0 - - 0.0
24/08:30pm 11.3 10.9 8.3 82 1.5 CALM 0 0 0 0 - - 0.0
24/08:00pm 11.1 10.4 6.8 75 2.0 CALM 0 0 0 0 - - 0.0
24/07:30pm 12.4 11.2 7.9 74 2.2 NNE 4 7 2 4 - - 0.0
24/07:00pm 14.4 12.9 9.0 70 2.8 E 7 11 4 6 - - 0.0
24/06:30pm 15.1 12.5 9.5 69 2.9 ENE 13 15 7 8 - - 0.0
24/06:00pm 15.9 13.9 8.6 62 3.7 ENE 9 11 5 6 - - 0.0
24/05:30pm 17.6 15.9 8.2 54 4.8 E 7 13 4 7 - - 0.0
24/05:00pm 19.6 17.3 7.4 45 6.2 ENE 9 13 5 7 - - 0.0
24/04:30pm 21.5 19.5 7.0 39 7.5 ENE 7 9 4 5 - - 0.0
24/04:00pm 22.1 20.2 7.5 39 7.6 ENE 7 13 4 7 - - 0.0
24/03:30pm 22.1 19.1 7.9 40 7.4 E 13 15 7 8 - - 0.0
24/03:00pm 22.1 18.4 7.9 40 7.4 E 17 22 9 12 - - 0.0
24/02:30pm 22.2 20.3 9.0 43 7.1 ESE 9 17 5 9 - - 0.0
24/02:00pm 21.8 19.9 9.0 44 6.8 E 9 15 5 8 - - 0.0
24/01:30pm 21.2 19.2 8.8 45 6.6 NNE 9 15 5 8 - - 0.0
24/01:00pm 21.5 19.5 10.0 48 6.2 NE 11 17 6 9 - - 0.0
24/12:30pm 20.7 18.7 10.2 51 5.7 NE 11 26 6 14 - - 0.0
24/12:00pm 20.1 18.2 10.5 54 5.2 N 11 20 6 11 - - 0.0
24/11:30am 20.1 18.8 11.3 57 4.9 N 9 19 5 10 - - 0.0
24/11:00am 19.0 18.4 10.3 57 4.7 E 4 9 2 5 - - 0.0
24/10:30am 18.3 16.8 10.4 60 4.2 ESE 9 15 5 8 - - 0.0
24/10:00am 17.3 16.1 9.5 60 4.1 E 6 11 3 6 - - 0.0
24/09:30am 15.7 14.3 9.6 67 3.2 W 7 13 4 7 - - 0.0
24/09:00am 14.5 14.0 9.5 72 2.6 W 2 7 1 4 - - 0.2
24/08:30am 12.8 11.9 9.3 79 1.8 W 4 9 2 5 - - 0.2
24/08:00am 11.4 9.8 8.8 84 1.3 WSW 7 11 4 6 - - 0.2
24/07:30am 9.6 7.7 7.7 88 0.9 W 7 9 4 5 - - 0.2
24/07:00am 8.6 6.6 7.2 91 0.7 WNW 7 9 4 5 - - 0.0
24/06:30am 7.9 6.0 6.5 91 0.6 WSW 6 9 3 5 - - 0.0
24/06:00am 7.0 4.7 5.0 87 0.9 WSW 6 7 3 4 - - 0.0
24/05:30am 7.5 5.1 5.1 85 1.1 W 7 9 4 5 - - 0.0
24/05:00am 8.2 5.8 5.3 82 1.3 W 7 9 4 5 - - 0.0
24/04:30am 9.1 6.9 6.0 81 1.4 W 7 9 4 5 - - 0.0
24/04:00am 9.6 7.6 7.0 84 1.2 WSW 7 9 4 5 - - 0.0
24/03:30am 9.4 8.6 6.5 82 1.4 CALM 0 7 0 4 - - 0.0
24/03:00am 10.0 8.3 7.4 84 1.2 SSW 6 7 3 4 - - 0.0
24/02:30am 10.4 8.4 7.3 81 1.5 W 7 9 4 5 - - 0.0
24/02:00am 10.8 8.9 7.7 81 1.5 W 7 11 4 6 - - 0.0
24/01:30am 10.6 8.6 7.3 80 1.6 WSW 7 11 4 6 - - 0.0
24/01:00am 10.7 8.9 7.2 79 1.7 SW 6 7 3 4 - - 0.0
24/12:30am 10.4 8.5 7.6 83 1.3 WSW 7 9 4 5 - - 0.0
24/12:00am 9.9 8.1 7.0 82 1.4 WSW 6 7 3 4 - - 0.0
 
Date/Time
EST
Tmp

°C
App
Tmp
°C
Dew
Point
°C
Rel
Hum
%
Delta-T

°C
Wind Press
QNH
hPa
Press
MSL
hPa
Rain
since
9 am
mm
Dir
 
Spd
km/h
Gust
km/h
Spd
kts
Gust
kts
23/11:30pm 9.7 8.5 6.6 81 1.5 WSW 2 6 1 3 - - 0.0
23/11:00pm 9.7 9.1 7.3 85 1.1 CALM 0 0 0 0 - - 0.0
23/10:30pm 9.1 8.3 6.5 84 1.2 CALM 0 0 0 0 - - 0.0
23/10:00pm 9.3 8.4 6.2 81 1.4 CALM 0 0 0 0 - - 0.0
23/09:30pm 10.4 9.6 6.7 78 1.7 CALM 0 4 0 2 - - 0.0
23/09:00pm 10.1 8.8 5.9 75 1.9 W 2 7 1 4 - - 0.0
23/08:30pm 11.4 10.5 6.1 70 2.5 CALM 0 0 0 0 - - 0.0
23/08:00pm 12.6 11.9 7.1 69 2.7 CALM 0 0 0 0 - - 0.0
23/07:30pm 13.3 11.6 7.7 69 2.8 NE 6 7 3 4 - - 0.0
23/07:00pm 14.3 12.2 8.3 67 3.0 NE 9 13 5 7 - - 0.0
23/06:30pm 12.7 11.2 6.7 67 2.9 ESE 4 13 2 7 - - 0.0
23/06:00pm 13.3 12.5 6.4 63 3.3 CALM 0 4 0 2 - - 0.0
23/05:30pm 15.4 13.4 6.4 55 4.4 NE 6 7 3 4 - - 0.0
23/05:00pm 18.0 16.1 7.4 50 5.4 NE 7 11 4 6 - - 0.0
23/04:30pm 18.7 16.7 6.9 46 5.9 NE 7 9 4 5 - - 0.0
23/04:00pm 20.2 18.0 6.2 40 7.0 NE 7 13 4 7 - - 0.0
23/03:30pm 20.9 19.3 6.4 39 7.3 NNE 4 9 2 5 - - 0.0
23/03:00pm 20.8 18.9 6.7 40 7.2 SE 6 9 3 5 - - 0.0
23/02:30pm 21.0 19.1 6.9 40 7.2 N 6 11 3 6 - - 0.0
23/02:00pm 20.9 18.3 7.9 43 6.8 NW 11 15 6 8 - - 0.0
23/01:30pm 20.5 18.7 7.8 44 6.6 NNE 7 11 4 6 - - 0.0
23/01:00pm 20.4 17.8 7.7 44 6.6 N 11 20 6 11 - - 0.0
23/12:30pm 19.9 18.2 8.3 47 6.0 N 7 13 4 7 - - 0.0
23/12:00pm 19.2 17.6 8.2 49 5.7 SSE 6 15 3 8 - - 0.0
23/11:30am 19.1 17.5 8.7 51 5.4 ENE 7 13 4 7 - - 0.0
23/11:00am 17.9 16.9 8.7 55 4.8 W 4 9 2 5 - - 0.0
23/10:30am 16.6 15.6 8.8 60 4.0 SE 4 9 2 5 - - 0.0
23/10:00am 15.3 14.1 9.4 68 3.1 W 6 11 3 6 - - 0.0
23/09:30am 13.4 11.7 9.8 79 1.9 W 9 13 5 7 - - 0.0
23/09:00am 11.7 9.7 8.7 82 1.5 W 9 13 5 7 - - 0.4
23/08:30am 9.7 7.9 8.0 89 0.8 W 7 11 4 6 - - 0.4
23/08:00am 8.2 5.8 7.1 93 0.5 W 9 13 5 7 - - 0.4
23/07:30am 6.9 3.9 6.2 95 0.3 W 11 13 6 7 - - 0.4
23/07:00am 6.0 3.3 5.4 96 0.3 W 9 11 5 6 - - 0.4
23/06:30am 6.1 3.0 5.7 97 0.2 W 11 15 6 8 - - 0.4
23/06:00am 6.2 2.7 5.6 96 0.3 W 13 17 7 9 - - 0.4
23/05:30am 6.2 3.1 5.6 96 0.3 W 11 13 6 7 - - 0.4
23/05:00am 6.3 4.0 5.6 95 0.3 WSW 7 11 4 6 - - 0.4
23/04:30am 6.5 4.2 5.8 95 0.3 WSW 7 9 4 5 - - 0.4
23/04:00am 6.2 3.1 5.5 95 0.3 W 11 13 6 7 - - 0.4
23/03:30am 6.7 4.1 6.0 95 0.3 WSW 9 11 5 6 - - 0.4
23/03:00am 7.0 4.8 6.3 95 0.3 W 7 11 4 6 - - 0.4
23/02:30am 5.9 3.4 4.5 91 0.6 W 7 9 4 5 - - 0.4
23/02:00am 6.7 4.9 5.3 91 0.6 W 4 7 2 4 - - 0.4
23/01:30am 7.0 4.3 5.6 91 0.6 W 9 11 5 6 - - 0.4
23/01:00am 7.9 5.4 6.7 92 0.6 WSW 9 11 5 6 - - 0.4
23/12:30am 8.3 6.4 6.9 91 0.7 WSW 6 7 3 4 - - 0.4
23/12:00am 8.8 6.7 6.8 87 0.9 WSW 7 9 4 5 - - 0.4
 
Date/Time
EST
Tmp

°C
App
Tmp
°C
Dew
Point
°C
Rel
Hum
%
Delta-T

°C
Wind Press
QNH
hPa
Press
MSL
hPa
Rain
since
9 am
mm
Dir
 
Spd
km/h
Gust
km/h
Spd
kts
Gust
kts
22/11:30pm 9.5 7.6 7.4 87 1.0 WSW 7 9 4 5 - - 0.4
22/11:00pm 8.7 6.6 6.5 86 1.0 W 7 7 4 4 - - 0.4
22/10:30pm 10.1 8.7 7.3 83 1.3 W 4 9 2 5 - - 0.4
22/10:00pm 10.3 9.8 7.9 85 1.2 CALM 0 0 0 0 - - 0.4
22/09:30pm 10.4 9.7 8.7 89 0.8 NNW 2 7 1 4 - - 0.4
22/09:00pm 9.5 8.8 6.9 84 1.2 CALM 0 0 0 0 - - 0.4
22/08:30pm 10.0 9.3 6.9 81 1.5 CALM 0 0 0 0 - - 0.4
22/08:00pm 11.0 10.4 7.5 79 1.7 CALM 0 0 0 0 - - 0.4
22/07:30pm 12.2 10.5 7.5 73 2.3 N 6 7 3 4 - - 0.4
22/07:00pm 14.1 12.1 8.7 70 2.7 E 9 11 5 6 - - 0.4
22/06:30pm 15.5 12.1 9.0 65 3.3 E 17 26 9 14 - - 0.4
22/06:00pm 14.9 12.5 8.6 66 3.2 E 11 17 6 9 - - 0.4
22/05:30pm 15.0 13.5 8.3 64 3.4 ESE 6 7 3 4 - - 0.4
22/05:00pm 16.7 14.8 8.9 60 4.0 E 9 13 5 7 - - 0.4
22/04:30pm 18.3 15.2 8.8 54 5.0 ENE 15 20 8 11 - - 0.4
22/04:00pm 19.6 16.5 8.9 50 5.6 ENE 15 20 8 11 - - 0.4
22/03:30pm 19.6 16.1 8.6 49 5.8 E 17 20 9 11 - - 0.4
22/03:00pm 19.8 17.7 9.7 52 5.4 ESE 11 15 6 8 - - 0.4
22/02:30pm 20.2 19.0 9.7 51 5.6 NNW 6 11 3 6 - - 0.0
22/02:00pm 21.1 19.4 9.7 48 6.1 N 9 15 5 8 - - 0.0
22/01:30pm 21.3 19.3 10.2 49 6.0 NE 11 15 6 8 - - 0.0
22/01:00pm 20.3 18.7 10.1 52 5.5 NE 9 17 5 9 - - 0.0
22/12:30pm 19.9 18.0 10.6 55 5.1 NE 11 17 6 9 - - 0.0
22/12:00pm 18.7 17.8 10.5 59 4.4 ENE 6 9 3 5 - - 0.0
22/11:30am 19.4 18.1 11.4 60 4.4 NNE 9 15 5 8 - - 0.0
22/11:00am 18.6 17.8 11.2 62 4.0 N 6 13 3 7 - - 0.0
22/10:30am 18.1 17.2 11.2 64 3.8 NNE 7 11 4 6 - - 0.0
22/10:00am 16.9 16.1 11.0 68 3.2 ENE 6 11 3 6 - - 0.0
22/09:30am 16.3 15.5 11.2 72 2.8 N 6 7 3 4 - - 0.0
22/09:00am 13.9 14.1 10.5 80 1.8 CALM 0 0 0 0 - - 0.0
22/08:30am 11.9 11.0 9.3 84 1.3 W 4 7 2 4 - - 0.0
22/08:00am 10.8 9.2 8.9 88 0.9 W 7 9 4 5 - - 0.0
22/07:30am 10.3 9.0 9.1 92 0.6 W 6 7 3 4 - - 0.0
22/07:00am 9.0 7.2 7.9 93 0.5 W 7 9 4 5 - - 0.0
22/06:30am 8.3 6.6 7.4 94 0.4 W 6 9 3 5 - - 0.0
22/06:00am 7.0 5.6 5.5 90 0.7 W 2 7 1 4 - - 0.0
22/05:30am 8.2 7.6 7.4 95 0.4 CALM 0 0 0 0 - - 0.0
22/05:00am 7.9 6.3 6.5 91 0.6 W 4 6 2 3 - - 0.0
22/04:30am 8.1 6.0 6.6 90 0.7 W 7 9 4 5 - - 0.0
22/04:00am 9.1 7.2 7.7 91 0.7 WSW 7 9 4 5 - - 0.0
22/03:30am 9.4 7.7 7.5 88 0.9 W 6 7 3 4 - - 0.0
22/03:00am 10.0 8.7 7.8 86 1.1 SW 4 7 2 4 - - 0.0
22/02:30am 10.3 8.6 8.4 88 0.9 W 7 9 4 5 - - 0.0
22/02:00am 10.5 8.9 8.9 90 0.8 WSW 7 11 4 6 - - 0.0
22/01:30am 8.9 6.7 7.8 93 0.5 W 9 11 5 6 - - 0.0
22/01:00am 7.2 4.8 5.3 88 0.8 W 7 9 4 5 - - 0.0
22/12:30am 8.6 6.7 6.9 89 0.8 SW 6 7 3 4 - - 0.0
22/12:00am 8.9 8.3 7.4 90 0.7 CALM 0 0 0 0 - - 0.0
 
Date/Time
EST
Tmp

°C
App
Tmp
°C
Dew
Point
°C
Rel
Hum
%
Delta-T

°C
Wind Press
QNH
hPa
Press
MSL
hPa
Rain
since
9 am
mm
Dir
 
Spd
km/h
Gust
km/h
Spd
kts
Gust
kts
21/11:30pm 8.5 7.7 6.5 87 0.9 CALM 0 0 0 0 - - 0.0
21/11:00pm 8.9 8.1 6.3 84 1.2 CALM 0 0 0 0 - - 0.0
21/10:30pm 9.6 8.8 6.5 81 1.4 CALM 0 0 0 0 - - 0.0

Latest Capital City Observations: Canberra | Sydney | Melbourne | Brisbane | Adelaide | Perth | Hobart | Darwin

Other Formats:

Comma delimited format used in spreadsheet applications
http://www.bom.gov.au/fwo/IDQ60901/IDQ60901.94562.axf

JavaScript Object Notation format (JSON) in row-major order
http://www.bom.gov.au/fwo/IDQ60901/IDQ60901.94562.json